Location: Newark
(46.8500°N, 5.1667°E)
Time: 03:56:54
(UTC+00:00)

ISS - Pass Details

Date: 23 September 2019
Orbit: 411 x 421 km, 51.6° (Epoch: 17 October)

Event Time Altitude Azimuth Distance (km) Brightness Sun altitude
Rises 18:32:56 0° 239° (WSW) 2,335 0.8 -10.5°
Reaches altitude 10° 18:35:01 10° 238° (WSW) 1,476 -0.3 -10.9°
Maximum altitude 18:38:20 78° 151° (SSE) 424 -3.9 -11.4°
Enters shadow 18:40:59 15° 66° (ENE) 1,216 -1.9 -11.9°
